Starlink 30851

operational
NORAD ID: 58215 Int'l Des: 2023-170 Owner: SPXS Country: US Constellation: starlink
LEOCIRCULAR

关于 Starlink 30851

正在加载描述...

实时位置

正在加载3D地球...

即将过境

高度历史

Altitude vs Time

uPlot chart will show altitude changes over time

两行轨道根数

1 58215U 23170K 26034.00858131 .00000075 00000-0 20591-4 0 9998
2 58215 43.0035 24.2738 0000914 280.8232 79.2507 15.02536465125064
Epoch: Feb 3, 2026 • Age: 32 hours

当前状态

高度 559.6 km
速度 7.58 km/s
星下点 -6.63°S, 114.35°E
发射日期 Nov 4, 2023
运行时间 2.2 years
类型 internet

技术详情

分类 Payload
质量 730.00 kg
干质量 700.00 kg
总质量 730.00 kg
长度 0.30 m
直径 4.10 m
跨度 29.00 m
形状 Box + pan
制造商 SPXS
平台类型 Starlink V2M
阶段状态 In Orbit
所有者/国家 SPXS/US

大型星座

Loading constellations...